Time,TemperatureF,DewpointF,PressureIn,WindDirection,WindDirectionDegrees,WindSpeedMPH,WindSpeedGustMPH,Humidity,HourlyPrecipIn,Conditions,Clouds,dailyrainin,SoftwareType,DateUTC
2013-03-09 00:05:00,41.0,37.7,29.91,ENE,67,7.0,7.0,88,0.00,,,0.20,Wunderground v.1.15,2013-03-09 06:05:00,
2013-03-09 00:15:00,41.0,37.7,29.92,SE,136,7.0,8.0,88,0.00,,,0.00,Wunderground v.1.15,2013-03-09 06:15:00,
2013-03-09 00:25:00,41.0,37.7,29.92,SE,128,4.0,5.0,88,0.24,,,0.10,Wunderground v.1.15,2013-03-09 06:25:00,
2013-03-09 00:30:00,41.0,37.7,29.92,SSE,155,4.0,4.0,88,0.38,,,0.11,Wunderground v.1.15,2013-03-09 06:30:00,
2013-03-09 00:35:00,40.9,37.6,29.92,SE,134,4.0,5.0,88,0.12,,,0.12,Wunderground v.1.15,2013-03-09 06:35:00,
2013-03-09 00:45:00,40.9,37.9,29.92,SE,137,4.0,4.0,89,0.04,,,0.12,Wunderground v.1.15,2013-03-09 06:45:00,
2013-03-09 00:50:00,40.9,37.9,29.91,SE,133,3.0,3.0,89,0.00,,,0.12,Wunderground v.1.15,2013-03-09 06:50:00,
2013-03-09 01:00:00,40.9,37.9,29.91,SE,132,3.0,3.0,89,0.00,,,0.12,Wunderground v.1.15,2013-03-09 07:00:00,
2013-03-09 01:05:00,40.9,37.9,29.90,SE,132,3.0,5.0,89,0.00,,,0.12,Wunderground v.1.15,2013-03-09 07:05:00,
2013-03-09 01:15:00,40.8,37.8,29.90,SE,128,4.0,5.0,89,0.00,,,0.12,Wunderground v.1.15,2013-03-09 07:15:00,
2013-03-09 01:25:00,40.8,38.1,29.90,SE,128,2.0,3.0,90,0.00,,,0.12,Wunderground v.1.15,2013-03-09 07:25:00,
2013-03-09 01:30:00,40.7,37.7,29.91,SE,128,2.0,2.0,89,0.00,,,0.12,Wunderground v.1.15,2013-03-09 07:30:00,
2013-03-09 01:40:00,40.6,37.9,29.90,SE,127,3.0,3.0,90,0.00,,,0.12,Wunderground v.1.15,2013-03-09 07:40:00,
2013-03-09 01:45:00,40.6,37.9,29.90,SE,127,3.0,3.0,90,0.00,,,0.12,Wunderground v.1.15,2013-03-09 07:45:00,
2013-03-09 01:55:00,40.6,37.9,29.90,SE,126,3.0,5.0,90,0.00,,,0.12,Wunderground v.1.15,2013-03-09 07:55:00,
2013-03-09 02:00:00,40.7,38.0,29.89,ESE,112,3.0,3.0,90,0.00,,,0.12,Wunderground v.1.15,2013-03-09 08:00:00,
2013-03-09 02:05:00,40.7,38.0,29.89,ESE,112,4.0,4.0,90,0.00,,,0.12,Wunderground v.1.15,2013-03-09 08:05:00,
2013-03-09 02:15:00,40.9,38.5,29.88,ESE,119,5.0,5.0,91,0.00,,,0.12,Wunderground v.1.15,2013-03-09 08:15:00,
2013-03-09 02:20:00,41.0,38.6,29.88,ESE,120,5.0,5.0,91,0.00,,,0.12,Wunderground v.1.15,2013-03-09 08:20:00,
2013-03-09 02:25:00,41.0,38.6,29.88,SE,126,5.0,5.0,91,0.00,,,0.12,Wunderground v.1.15,2013-03-09 08:25:00,
2013-03-09 02:35:00,41.1,38.7,29.88,SE,126,5.0,6.0,91,0.00,,,0.12,Wunderground v.1.15,2013-03-09 08:35:00,
2013-03-09 02:40:00,41.1,38.7,29.87,ESE,123,4.0,5.0,91,0.00,,,0.13,Wunderground v.1.15,2013-03-09 08:40:00,
2013-03-09 02:45:00,41.1,38.7,29.86,SE,127,4.0,5.0,91,0.00,,,0.13,Wunderground v.1.15,2013-03-09 08:45:00,
2013-03-09 02:55:00,41.3,38.9,29.86,SE,135,6.0,7.0,91,0.00,,,0.13,Wunderground v.1.15,2013-03-09 08:55:00,
2013-03-09 03:00:00,41.3,38.9,29.85,SE,138,6.0,6.0,91,0.00,,,0.13,Wunderground v.1.15,2013-03-09 09:00:00,
2013-03-09 03:05:00,41.3,38.9,29.85,SE,126,6.0,6.0,91,0.00,,,0.13,Wunderground v.1.15,2013-03-09 09:05:00,
2013-03-09 03:15:00,41.3,38.9,29.84,ESE,123,6.0,6.0,91,0.00,,,0.13,Wunderground v.1.15,2013-03-09 09:15:00,
2013-03-09 03:20:00,41.3,38.9,29.84,SE,127,5.0,6.0,91,0.00,,,0.13,Wunderground v.1.15,2013-03-09 09:20:00,
2013-03-09 03:25:00,41.3,38.9,29.83,ESE,122,5.0,6.0,91,0.00,,,0.13,Wunderground v.1.15,2013-03-09 09:25:00,
2013-03-09 03:35:00,41.4,39.0,29.83,SE,136,6.0,9.0,91,0.00,,,0.13,Wunderground v.1.15,2013-03-09 09:35:00,
2013-03-09 03:40:00,41.5,39.1,29.83,SE,128,6.0,7.0,91,0.00,,,0.13,Wunderground v.1.15,2013-03-09 09:40:00,
2013-03-09 03:50:00,41.6,39.2,29.83,ESE,122,6.0,7.0,91,0.00,,,0.14,Wunderground v.1.15,2013-03-09 09:50:00,
2013-03-09 03:55:00,41.6,39.2,29.83,ESE,123,6.0,10.0,91,0.00,,,0.14,Wunderground v.1.15,2013-03-09 09:55:00,
2013-03-09 04:05:00,41.7,39.3,29.82,SE,130,6.0,10.0,91,0.00,,,0.14,Wunderground v.1.15,2013-03-09 10:05:00,
2013-03-09 04:15:00,41.7,39.3,29.82,SE,136,6.0,6.0,91,0.09,,,0.16,Wunderground v.1.15,2013-03-09 10:15:00,
2013-03-09 04:20:00,41.7,39.3,29.81,SE,132,5.0,6.0,91,0.08,,,0.17,Wunderground v.1.15,2013-03-09 10:20:00,
2013-03-09 04:25:00,41.7,39.3,29.81,East,90,6.0,7.0,91,0.07,,,0.17,Wunderground v.1.15,2013-03-09 10:25:00,
2013-03-09 04:35:00,41.8,39.4,29.81,SE,131,6.0,7.0,91,0.00,,,0.17,Wunderground v.1.15,2013-03-09 10:35:00,
2013-03-09 04:40:00,41.9,39.5,29.81,ESE,114,6.0,8.0,91,0.00,,,0.17,Wunderground v.1.15,2013-03-09 10:40:00,
2013-03-09 04:45:00,41.9,39.5,29.80,ESE,112,6.0,8.0,91,0.00,,,0.17,Wunderground v.1.15,2013-03-09 10:45:00,
2013-03-09 04:55:00,41.9,39.5,29.81,East,101,7.0,7.0,91,0.00,,,0.18,Wunderground v.1.15,2013-03-09 10:55:00,
2013-03-09 05:05:00,41.9,39.5,29.80,ESE,111,6.0,7.0,91,0.05,,,0.19,Wunderground v.1.15,2013-03-09 11:05:00,
2013-03-09 05:15:00,42.0,39.6,29.80,SE,132,6.0,7.0,91,0.05,,,0.19,Wunderground v.1.15,2013-03-09 11:15:00,
2013-03-09 05:20:00,42.0,39.6,29.79,ESE,107,6.0,11.0,91,0.04,,,0.19,Wunderground v.1.15,2013-03-09 11:20:00,
2013-03-09 05:25:00,42.0,39.6,29.79,ESE,110,6.0,11.0,91,0.00,,,0.19,Wunderground v.1.15,2013-03-09 11:25:00,
2013-03-09 05:35:00,42.0,39.6,29.79,ESE,109,7.0,8.0,91,0.00,,,0.19,Wunderground v.1.15,2013-03-09 11:35:00,
2013-03-09 05:45:00,42.3,39.6,29.78,ESE,116,7.0,8.0,90,0.00,,,0.19,Wunderground v.1.15,2013-03-09 11:45:00,
2013-03-09 05:50:00,42.4,39.7,29.78,SE,129,7.0,9.0,90,0.00,,,0.19,Wunderground v.1.15,2013-03-09 11:50:00,
2013-03-09 06:00:00,42.5,39.5,29.78,ESE,117,9.0,12.0,89,0.00,,,0.19,Wunderground v.1.15,2013-03-09 12:00:00,
2013-03-09 06:05:00,42.5,39.5,29.78,SE,139,9.0,12.0,89,0.00,,,0.19,Wunderground v.1.15,2013-03-09 12:05:00,
2013-03-09 06:15:00,42.6,39.6,29.78,ESE,116,9.0,10.0,89,0.00,,,0.19,Wunderground v.1.15,2013-03-09 12:15:00,
2013-03-09 06:25:00,42.6,39.6,29.77,ESE,107,9.0,9.0,89,0.00,,,0.19,Wunderground v.1.15,2013-03-09 12:25:00,
2013-03-09 06:30:00,42.6,39.3,29.77,North,360,9.0,9.0,88,0.00,,,0.19,Wunderground v.1.15,2013-03-09 12:30:00,
2013-03-09 06:35:00,42.7,39.4,29.77,SE,136,9.0,9.0,88,0.00,,,0.19,Wunderground v.1.15,2013-03-09 12:35:00,
2013-03-09 06:45:00,42.7,39.4,29.77,ESE,118,10.0,13.0,88,0.00,,,0.19,Wunderground v.1.15,2013-03-09 12:45:00,
2013-03-09 06:50:00,42.7,39.4,29.77,SE,127,10.0,10.0,88,0.00,,,0.19,Wunderground v.1.15,2013-03-09 12:50:00,
2013-03-09 07:00:00,42.6,39.3,29.76,ESE,111,9.0,9.0,88,0.00,,,0.19,Wunderground v.1.15,2013-03-09 13:00:00,
2013-03-09 07:05:00,42.6,39.3,29.76,SE,136,10.0,14.0,88,0.00,,,0.19,Wunderground v.1.15,2013-03-09 13:05:00,
2013-03-09 07:15:00,42.6,39.3,29.75,SE,124,11.0,11.0,88,0.00,,,0.19,Wunderground v.1.15,2013-03-09 13:15:00,
2013-03-09 07:25:00,42.6,39.0,29.75,North,360,9.0,10.0,87,0.00,,,0.19,Wunderground v.1.15,2013-03-09 13:25:00,
2013-03-09 07:30:00,42.6,39.0,29.74,ESE,113,9.0,11.0,87,0.00,,,0.19,Wunderground v.1.15,2013-03-09 13:30:00,
2013-03-09 07:40:00,42.7,39.1,29.74,ESE,123,8.0,10.0,87,0.00,,,0.19,Wunderground v.1.15,2013-03-09 13:40:00,
2013-03-09 07:45:00,42.7,39.1,29.74,East,101,8.0,10.0,87,0.00,,,0.19,Wunderground v.1.15,2013-03-09 13:45:00,
2013-03-09 07:55:00,42.9,39.3,29.73,East,96,9.0,9.0,87,0.00,,,0.19,Wunderground v.1.15,2013-03-09 13:55:00,
2013-03-09 08:00:00,43.0,39.4,29.72,East,96,8.0,8.0,87,0.00,,,0.19,Wunderground v.1.15,2013-03-09 14:00:00,
2013-03-09 08:05:00,43.1,39.5,29.72,East,90,8.0,9.0,87,0.00,,,0.19,Wunderground v.1.15,2013-03-09 14:05:00,
2013-03-09 08:15:00,43.3,39.7,29.72,ESE,118,9.0,10.0,87,0.00,,,0.19,Wunderground v.1.15,2013-03-09 14:15:00,
2013-03-09 08:25:00,43.6,40.0,29.71,ESE,117,9.0,11.0,87,0.00,,,0.19,Wunderground v.1.15,2013-03-09 14:25:00,
2013-03-09 08:30:00,43.7,39.8,29.70,ESE,119,10.0,10.0,86,0.00,,,0.19,Wunderground v.1.15,2013-03-09 14:30:00,
2013-03-09 08:40:00,44.0,40.1,29.70,SE,124,10.0,10.0,86,0.00,,,0.19,Wunderground v.1.15,2013-03-09 14:40:00,
2013-03-09 08:45:00,44.2,40.3,29.70,East,100,11.0,11.0,86,0.00,,,0.19,Wunderground v.1.15,2013-03-09 14:45:00,
2013-03-09 08:55:00,44.6,40.7,29.70,SE,126,10.0,13.0,86,0.00,,,0.19,Wunderground v.1.15,2013-03-09 14:55:00,
2013-03-09 09:00:00,44.8,40.6,29.70,ESE,115,10.0,10.0,85,0.00,,,0.19,Wunderground v.1.15,2013-03-09 15:00:00,
2013-03-09 09:05:00,45.0,40.8,29.70,ESE,113,11.0,14.0,85,0.00,,,0.19,Wunderground v.1.15,2013-03-09 15:05:00,
2013-03-09 09:15:00,45.2,40.7,29.70,SE,131,13.0,15.0,84,0.00,,,0.19,Wunderground v.1.15,2013-03-09 15:15:00,
2013-03-09 09:25:00,45.3,40.7,29.69,SE,126,14.0,14.0,84,0.00,,,0.19,Wunderground v.1.15,2013-03-09 15:25:00,
2013-03-09 09:35:00,45.2,40.7,29.68,ESE,123,12.0,14.0,84,0.00,,,0.19,Wunderground v.1.15,2013-03-09 15:35:00,
2013-03-09 09:40:00,45.1,40.6,29.67,SSE,149,12.0,13.0,84,0.00,,,0.19,Wunderground v.1.15,2013-03-09 15:40:00,
2013-03-09 09:50:00,45.0,40.8,29.66,ESE,103,12.0,12.0,85,0.00,,,0.19,Wunderground v.1.15,2013-03-09 15:50:00,
2013-03-09 09:55:00,45.0,40.8,29.67,SE,131,13.0,13.0,85,0.00,,,0.19,Wunderground v.1.15,2013-03-09 15:55:00,
2013-03-09 10:05:00,45.1,41.2,29.66,ESE,123,9.0,11.0,86,0.00,,,0.19,Wunderground v.1.15,2013-03-09 16:05:00,
2013-03-09 10:10:00,45.1,41.2,29.66,SE,134,8.0,11.0,86,0.00,,,0.19,Wunderground v.1.15,2013-03-09 16:10:00,
2013-03-09 10:20:00,45.2,41.6,29.66,SE,136,7.0,7.0,87,0.00,,,0.19,Wunderground v.1.15,2013-03-09 16:20:00,
2013-03-09 10:30:00,45.4,41.8,29.63,SE,140,13.0,18.0,87,0.00,,,0.19,Wunderground v.1.15,2013-03-09 16:30:00,
2013-03-09 10:35:00,45.6,42.3,29.63,ESE,121,12.0,18.0,88,0.00,,,0.19,Wunderground v.1.15,2013-03-09 16:35:00,
2013-03-09 10:45:00,45.6,42.3,29.64,SE,140,7.0,10.0,88,0.00,,,0.19,Wunderground v.1.15,2013-03-09 16:45:00,
2013-03-09 10:55:00,45.8,42.7,29.65,SE,146,8.0,9.0,89,0.00,,,0.19,Wunderground v.1.15,2013-03-09 16:55:00,
2013-03-09 11:00:00,46.0,42.9,29.64,SE,146,8.0,15.0,89,0.00,,,0.19,Wunderground v.1.15,2013-03-09 17:00:00,
2013-03-09 11:05:00,46.2,43.1,29.63,SE,132,9.0,15.0,89,0.00,,,0.19,Wunderground v.1.15,2013-03-09 17:05:00,
2013-03-09 11:15:00,46.5,43.4,29.64,South,170,10.0,10.0,89,0.00,,,0.19,Wunderground v.1.15,2013-03-09 17:15:00,
2013-03-09 11:20:00,46.7,43.9,29.65,SSW,192,7.0,7.0,90,0.00,,,0.19,Wunderground v.1.15,2013-03-09 17:20:00,
2013-03-09 11:25:00,46.9,44.1,29.66,South,171,8.0,12.0,90,0.00,,,0.19,Wunderground v.1.15,2013-03-09 17:25:00,
2013-03-09 11:35:00,47.3,44.5,29.67,SW,217,10.0,11.0,90,0.00,,,0.19,Wunderground v.1.15,2013-03-09 17:35:00,
2013-03-09 11:40:00,47.4,44.6,29.66,SSE,159,10.0,10.0,90,0.00,,,0.19,Wunderground v.1.15,2013-03-09 17:40:00,
2013-03-09 11:50:00,47.5,44.7,29.66,South,171,7.0,7.0,90,0.00,,,0.19,Wunderground v.1.15,2013-03-09 17:50:00,
2013-03-09 11:55:00,47.6,44.8,29.65,SE,134,7.0,7.0,90,0.00,,,0.19,Wunderground v.1.15,2013-03-09 17:55:00,
2013-03-09 12:00:00,47.7,44.9,29.66,South,172,7.0,7.0,90,0.00,,,0.19,Wunderground v.1.15,2013-03-09 18:00:00,
2013-03-09 12:05:00,47.7,45.2,29.67,South,180,8.0,11.0,91,0.00,,,0.19,Wunderground v.1.15,2013-03-09 18:05:00,
2013-03-09 12:15:00,47.8,45.3,29.67,SE,134,8.0,9.0,91,0.00,,,0.19,Wunderground v.1.15,2013-03-09 18:15:00,
2013-03-09 12:25:00,47.8,45.3,29.65,South,186,7.0,7.0,91,0.00,,,0.19,Wunderground v.1.15,2013-03-09 18:25:00,
2013-03-09 12:30:00,47.9,45.4,29.65,SSE,161,6.0,6.0,91,0.00,,,0.19,Wunderground v.1.15,2013-03-09 18:30:00,
2013-03-09 12:35:00,47.9,45.4,29.65,SE,132,6.0,6.0,91,0.00,,,0.19,Wunderground v.1.15,2013-03-09 18:35:00,
2013-03-09 12:45:00,48.1,45.6,29.64,SE,146,6.0,6.0,91,0.00,,,0.19,Wunderground v.1.15,2013-03-09 18:45:00,
2013-03-09 12:50:00,48.2,45.7,29.63,SE,139,6.0,9.0,91,0.00,,,0.19,Wunderground v.1.15,2013-03-09 18:50:00,
2013-03-09 13:00:00,48.6,46.1,29.63,SE,140,6.0,6.0,91,0.00,,,0.19,Wunderground v.1.15,2013-03-09 19:00:00,
2013-03-09 13:05:00,49.1,46.9,29.63,SSE,163,6.0,6.0,92,0.00,,,0.19,Wunderground v.1.15,2013-03-09 19:05:00,
2013-03-09 13:15:00,49.2,46.7,29.62,SSE,149,7.0,8.0,91,0.00,,,0.19,Wunderground v.1.15,2013-03-09 19:15:00,
2013-03-09 13:25:00,49.2,46.7,29.62,SSE,152,7.0,9.0,91,0.00,,,0.19,Wunderground v.1.15,2013-03-09 19:25:00,
2013-03-09 13:30:00,49.2,46.7,29.62,SSE,157,6.0,6.0,91,0.00,,,0.19,Wunderground v.1.15,2013-03-09 19:30:00,
2013-03-09 13:40:00,49.2,46.7,29.62,SE,136,7.0,8.0,91,0.00,,,0.19,Wunderground v.1.15,2013-03-09 19:40:00,
2013-03-09 13:45:00,49.3,46.8,29.61,SE,145,7.0,8.0,91,0.00,,,0.19,Wunderground v.1.15,2013-03-09 19:45:00,
2013-03-09 13:55:00,49.4,46.9,29.61,SE,140,6.0,8.0,91,0.00,,,0.19,Wunderground v.1.15,2013-03-09 19:55:00,
2013-03-09 14:05:00,49.7,47.2,29.60,SE,140,5.0,6.0,91,0.00,,,0.19,Wunderground v.1.15,2013-03-09 20:05:00,
2013-03-09 14:15:00,49.9,47.4,29.59,SSE,161,4.0,5.0,91,0.00,,,0.19,Wunderground v.1.15,2013-03-09 20:15:00,
2013-03-09 14:20:00,50.0,47.5,29.59,South,186,5.0,6.0,91,0.00,,,0.19,Wunderground v.1.15,2013-03-09 20:20:00,
2013-03-09 14:30:00,50.6,48.4,29.60,South,177,6.0,7.0,92,0.00,,,0.19,Wunderground v.1.15,2013-03-09 20:30:00,
2013-03-09 14:35:00,50.8,48.6,29.59,SSE,150,6.0,7.0,92,0.00,,,0.19,Wunderground v.1.15,2013-03-09 20:35:00,
2013-03-09 14:45:00,51.1,48.9,29.59,SE,139,6.0,7.0,92,0.00,,,0.19,Wunderground v.1.15,2013-03-09 20:45:00,
2013-03-09 14:50:00,51.2,48.7,29.60,SE,142,6.0,7.0,91,0.00,,,0.19,Wunderground v.1.15,2013-03-09 20:50:00,
2013-03-09 15:00:00,51.3,48.8,29.61,SSE,157,6.0,13.0,91,0.00,,,0.19,Wunderground v.1.15,2013-03-09 21:00:00,
2013-03-09 15:05:00,51.4,48.9,29.63,SSE,164,7.0,13.0,91,0.00,,,0.19,Wunderground v.1.15,2013-03-09 21:05:00,
2013-03-09 15:15:00,51.3,48.8,29.63,SSE,163,5.0,10.0,91,0.00,,,0.19,Wunderground v.1.15,2013-03-09 21:15:00,
2013-03-09 15:20:00,51.3,48.8,29.64,SSE,164,6.0,6.0,91,0.00,,,0.19,Wunderground v.1.15,2013-03-09 21:20:00,
2013-03-09 15:25:00,51.3,48.8,29.63,SSE,148,5.0,6.0,91,0.00,,,0.19,Wunderground v.1.15,2013-03-09 21:25:00,
2013-03-09 15:35:00,51.3,48.8,29.62,SSE,148,5.0,9.0,91,0.00,,,0.19,Wunderground v.1.15,2013-03-09 21:35:00,
2013-03-09 15:40:00,51.3,48.8,29.61,SSE,163,4.0,4.0,91,0.00,,,0.19,Wunderground v.1.15,2013-03-09 21:40:00,
2013-03-09 15:50:00,51.4,48.9,29.60,SSE,149,4.0,4.0,91,0.00,,,0.19,Wunderground v.1.15,2013-03-09 21:50:00,
2013-03-09 15:55:00,51.5,49.0,29.59,SSE,149,4.0,4.0,91,0.00,,,0.19,Wunderground v.1.15,2013-03-09 21:55:00,
2013-03-09 16:05:00,51.9,49.4,29.58,SE,130,5.0,6.0,91,0.00,,,0.19,Wunderground v.1.15,2013-03-09 22:05:00,
2013-03-09 16:15:00,51.8,49.3,29.55,SE,128,10.0,12.0,91,0.00,,,0.19,Wunderground v.1.15,2013-03-09 22:15:00,
2013-03-09 16:20:00,51.8,49.3,29.54,ESE,107,11.0,11.0,91,0.00,,,0.19,Wunderground v.1.15,2013-03-09 22:20:00,
2013-03-09 16:30:00,51.5,48.7,29.55,ESE,116,10.0,14.0,90,0.00,,,0.19,Wunderground v.1.15,2013-03-09 22:30:00,
2013-03-09 16:40:00,51.3,48.8,29.55,SE,136,11.0,11.0,91,0.00,,,0.19,Wunderground v.1.15,2013-03-09 22:40:00,
2013-03-09 16:50:00,51.5,49.0,29.55,SE,133,10.0,10.0,91,0.00,,,0.19,Wunderground v.1.15,2013-03-09 22:50:00,
2013-03-09 16:55:00,51.6,49.1,29.56,SSE,150,10.0,10.0,91,0.00,,,0.19,Wunderground v.1.15,2013-03-09 22:55:00,
2013-03-09 17:05:00,51.8,49.3,29.55,SE,130,10.0,15.0,91,0.00,,,0.19,Wunderground v.1.15,2013-03-09 23:05:00,
2013-03-09 17:15:00,51.9,49.1,29.56,SE,124,10.0,14.0,90,0.00,,,0.19,Wunderground v.1.15,2013-03-09 23:15:00,
2013-03-09 17:25:00,51.9,49.1,29.56,SE,130,9.0,11.0,90,0.00,,,0.19,Wunderground v.1.15,2013-03-09 23:25:00,
2013-03-09 17:30:00,51.8,49.0,29.56,SE,142,8.0,10.0,90,0.00,,,0.19,Wunderground v.1.15,2013-03-09 23:30:00,
2013-03-09 17:40:00,51.9,49.1,29.57,South,173,6.0,6.0,90,0.00,,,0.19,Wunderground v.1.15,2013-03-09 23:40:00,
2013-03-09 17:45:00,51.8,49.0,29.57,SE,139,5.0,6.0,90,0.00,,,0.19,Wunderground v.1.15,2013-03-09 23:45:00,
2013-03-09 17:55:00,51.9,49.1,29.58,SSE,147,5.0,8.0,90,0.00,,,0.19,Wunderground v.1.15,2013-03-09 23:55:00,
2013-03-09 18:00:00,51.8,49.0,29.58,SSE,150,5.0,5.0,90,0.00,,,0.19,Wunderground v.1.15,2013-03-10 00:00:00,
2013-03-09 18:05:00,51.8,49.0,29.58,SSE,155,5.0,5.0,90,0.00,,,0.19,Wunderground v.1.15,2013-03-10 00:05:00,
2013-03-09 18:15:00,51.7,48.9,29.59,SSE,149,4.0,4.0,90,0.00,,,0.19,Wunderground v.1.15,2013-03-10 00:15:00,
2013-03-09 18:20:00,51.7,48.9,29.59,SSE,150,3.0,3.0,90,0.00,,,0.19,Wunderground v.1.15,2013-03-10 00:20:00,
2013-03-09 18:30:00,51.6,48.8,29.60,SSE,150,1.0,1.0,90,0.00,,,0.19,Wunderground v.1.15,2013-03-10 00:30:00,
2013-03-09 18:35:00,51.5,48.7,29.60,SSE,151,0.0,2.0,90,0.00,,,0.19,Wunderground v.1.15,2013-03-10 00:35:00,
2013-03-09 18:45:00,51.5,48.7,29.60,WSW,246,1.0,3.0,90,0.00,,,0.19,Wunderground v.1.15,2013-03-10 00:45:00,
2013-03-09 18:55:00,51.5,48.7,29.60,SW,216,3.0,4.0,90,0.00,,,0.19,Wunderground v.1.15,2013-03-10 00:55:00,
2013-03-09 19:00:00,51.5,48.7,29.60,South,184,3.0,4.0,90,0.00,,,0.19,Wunderground v.1.15,2013-03-10 01:00:00,
2013-03-09 19:05:00,51.5,48.7,29.61,South,184,3.0,4.0,90,0.00,,,0.19,Wunderground v.1.15,2013-03-10 01:05:00,
2013-03-09 19:15:00,51.5,49.0,29.62,SSW,192,2.0,5.0,91,0.00,,,0.19,Wunderground v.1.15,2013-03-10 01:15:00,
2013-03-09 19:20:00,51.6,49.1,29.62,SSW,192,2.0,2.0,91,0.00,,,0.19,Wunderground v.1.15,2013-03-10 01:20:00,
2013-03-09 19:25:00,51.5,49.0,29.62,SSW,192,2.0,2.0,91,0.00,,,0.19,Wunderground v.1.15,2013-03-10 01:25:00,
2013-03-09 19:35:00,51.5,49.0,29.62,SSW,192,1.0,1.0,91,0.00,,,0.19,Wunderground v.1.15,2013-03-10 01:35:00,
2013-03-09 19:40:00,51.4,48.9,29.62,SSW,192,0.0,1.0,91,0.00,,,0.19,Wunderground v.1.15,2013-03-10 01:40:00,
2013-03-09 19:45:00,51.4,48.9,29.61,SSW,192,1.0,1.0,91,0.00,,,0.19,Wunderground v.1.15,2013-03-10 01:45:00,
2013-03-09 19:55:00,51.2,48.7,29.62,SSW,192,1.0,1.0,91,0.00,,,0.19,Wunderground v.1.15,2013-03-10 01:55:00,
2013-03-09 20:05:00,51.0,48.5,29.61,SSW,193,0.0,2.0,91,0.00,,,0.19,Wunderground v.1.15,2013-03-10 02:05:00,
2013-03-09 20:15:00,50.9,48.4,29.62,SSW,193,2.0,2.0,91,0.00,,,0.19,Wunderground v.1.15,2013-03-10 02:15:00,
2013-03-09 20:20:00,50.8,48.3,29.62,SSW,193,2.0,2.0,91,0.00,,,0.19,Wunderground v.1.15,2013-03-10 02:20:00,
2013-03-09 20:30:00,50.8,48.3,29.63,SSW,193,1.0,2.0,91,0.00,,,0.19,Wunderground v.1.15,2013-03-10 02:30:00,
2013-03-09 20:35:00,50.8,48.3,29.64,WNW,299,3.0,8.0,91,0.00,,,0.19,Wunderground v.1.15,2013-03-10 02:35:00,
2013-03-09 20:45:00,49.0,45.9,29.65,NNE,14,8.0,9.0,89,0.00,,,0.19,Wunderground v.1.15,2013-03-10 02:45:00,
2013-03-09 20:55:00,46.4,43.0,29.65,NNE,19,10.0,15.0,88,0.00,,,0.19,Wunderground v.1.15,2013-03-10 02:55:00,
2013-03-09 21:00:00,45.2,43.0,29.66,North,349,11.0,11.0,92,0.00,,,0.19,Wunderground v.1.15,2013-03-10 03:00:00,
2013-03-09 21:05:00,44.1,40.8,29.66,North,355,10.0,16.0,88,0.00,,,0.19,Wunderground v.1.15,2013-03-10 03:05:00,
2013-03-09 21:15:00,42.4,39.1,29.66,NE,37,15.0,15.0,88,0.00,,,0.19,Wunderground v.1.15,2013-03-10 03:15:00,
2013-03-09 21:20:00,41.9,38.6,29.67,NNW,341,11.0,11.0,88,0.00,,,0.19,Wunderground v.1.15,2013-03-10 03:20:00,
2013-03-09 21:30:00,41.2,38.2,29.66,North,5,12.0,12.0,89,0.00,,,0.19,Wunderground v.1.15,2013-03-10 03:30:00,
2013-03-09 21:40:00,40.6,37.6,29.66,NNE,18,12.0,12.0,89,0.00,,,0.20,Wunderground v.1.15,2013-03-10 03:40:00,
2013-03-09 21:50:00,40.1,37.4,29.67,NNE,22,13.0,14.0,90,0.13,,,0.22,Wunderground v.1.15,2013-03-10 03:50:00,
2013-03-09 21:55:00,39.8,37.1,29.67,NNW,344,13.0,14.0,90,0.08,,,0.22,Wunderground v.1.15,2013-03-10 03:55:00,
2013-03-09 22:05:00,39.4,36.7,29.69,NNW,331,11.0,13.0,90,0.00,,,0.22,Wunderground v.1.15,2013-03-10 04:05:00,
2013-03-09 22:15:00,39.1,36.7,29.68,NNE,17,13.0,13.0,91,0.00,,,0.22,Wunderground v.1.15,2013-03-10 04:15:00,
2013-03-09 22:20:00,39.0,36.6,29.69,NNW,348,13.0,16.0,91,0.00,,,0.22,Wunderground v.1.15,2013-03-10 04:20:00,
2013-03-09 22:30:00,38.9,36.5,29.70,NW,319,7.0,17.0,91,0.00,,,0.22,Wunderground v.1.15,2013-03-10 04:30:00,
2013-03-09 22:35:00,38.8,36.4,29.69,NW,317,8.0,17.0,91,0.00,,,0.23,Wunderground v.1.15,2013-03-10 04:35:00,
2013-03-09 22:45:00,38.4,36.0,29.70,West,267,10.0,12.0,91,0.07,,,0.24,Wunderground v.1.15,2013-03-10 04:45:00,
2013-03-09 22:55:00,37.9,35.5,29.69,North,355,11.0,13.0,91,0.05,,,0.24,Wunderground v.1.15,2013-03-10 04:55:00,
2013-03-09 23:00:00,37.6,35.2,29.69,NNW,333,12.0,16.0,91,0.04,,,0.24,Wunderground v.1.15,2013-03-10 05:00:00,
2013-03-09 23:05:00,37.3,34.9,29.70,NNE,30,11.0,16.0,91,0.00,,,0.24,Wunderground v.1.15,2013-03-10 05:05:00,
2013-03-09 23:15:00,36.8,34.4,29.70,NNW,328,12.0,17.0,91,0.00,,,0.24,Wunderground v.1.15,2013-03-10 05:15:00,
2013-03-09 23:20:00,36.6,34.2,29.70,ENE,63,12.0,12.0,91,0.00,,,0.24,Wunderground v.1.15,2013-03-10 05:20:00,
2013-03-09 23:25:00,36.5,34.1,29.70,North,355,12.0,12.0,91,0.00,,,0.24,Wunderground v.1.15,2013-03-10 05:25:00,
2013-03-09 23:30:00,36.3,33.9,29.70,NW,326,12.0,12.0,91,0.00,,,0.24,Wunderground v.1.15,2013-03-10 05:30:00,
2013-03-09 23:40:00,36.0,33.6,29.69,NNW,338,11.0,19.0,91,0.00,,,0.24,Wunderground v.1.15,2013-03-10 05:40:00,
2013-03-09 23:50:00,35.7,33.3,29.68,North,5,15.0,16.0,91,0.00,,,0.24,Wunderground v.1.15,2013-03-10 05:50:00,